Location: Banff
(51.1667°N, 115.5667°W)
Time: 06:36:26
(UTC+00:00)

S-56A Canister/Altair - Pass Details

Date: 02 December 2020
Orbit: 633 x 2499 km, 38.9° (Epoch: 21 January)

Event Time Altitude Azimuth Distance (km) Brightness Sun altitude
Rises 23:23:07 0° 186° (S) 6,108 12.9 0.9°
Reaches altitude 10° 23:30:18 10° 164° (SSE) 4,890 11.9 0.0°
Maximum altitude 23:35:48 14° 140° (SE) 4,337 11.3 -0.6°
Drops below altitude 10° 23:40:46 10° 115° (ESE) 4,334 11.1 -1.3°
Sets 23:46:14 0° 92° (E) 4,930 11.2 -2.0°
